| time (UTC) | temp F | wind direction | speed MPH | gust MPH | rain 1hr in | rain 24hr in | rain mn in | humidity % | barometer mb |
| 20260903234502 | 84 | 231 | 0.0 | 1.0 | 0.00 | 0.00 | 0.00 | 80 | 1016.5 |
| 20260903233120 | 85 | 226 | 0.0 | 3.0 | 0.00 | 0.00 | 0.00 | 79 | 1016.2 |
| 20260903231558 | 85 | 217 | 1.0 | 2.0 | 0.00 | 0.00 | 0.00 | 78 | 1016.2 |
| 20260903230109 | 87 | 207 | 0.0 | 2.0 | 0.00 | 0.00 | 0.00 | 75 | 1016.3 |
| 20260903224618 | 87 | 198 | 0.0 | 4.0 | 0.00 | 0.00 | 0.00 | 73 | 1016.2 |
| 20260903223129 | 88 | 193 | 1.0 | 4.0 | 0.00 | 0.00 | 0.00 | 73 | 1016.0 |
| 20260903221550 | 88 | 209 | 2.0 | 5.0 | 0.00 | 0.00 | 0.00 | 72 | 1016.1 |
| 20260903220048 | 88 | 227 | 3.0 | 8.0 | 0.00 | 0.00 | 0.00 | 73 | 1016.0 |
| 20260903214550 | 88 | 206 | 2.0 | 7.0 | 0.00 | 0.00 | 0.00 | 73 | 1016.2 |
| 20260903213053 | 89 | 205 | 5.0 | 8.0 | 0.00 | 0.00 | 0.00 | 73 | 1016.2 |
| 20260903211542 | 89 | 214 | 4.0 | 8.0 | 0.00 | 0.00 | 0.00 | 71 | 1016.2 |
| 20260903210049 | 90 | 204 | 2.0 | 6.0 | 0.00 | 0.00 | 0.00 | 68 | 1016.2 |
| 20260903204531 | 89 | 232 | 2.0 | 5.0 | 0.00 | 0.00 | 0.00 | 68 | 1016.4 |
| 20260903203034 | 89 | 199 | 3.0 | 6.0 | 0.00 | 0.00 | 0.00 | 68 | 1016.3 |
| 20260903201527 | 90 | 189 | 2.0 | 5.0 | 0.00 | 0.00 | 0.00 | 67 | 1016.7 |
| 20260903200021 | 90 | 269 | 2.0 | 6.0 | 0.00 | 0.00 | 0.00 | 66 | 1016.9 |
| 20260903194533 | 89 | 253 | 2.0 | 5.0 | 0.00 | 0.00 | 0.00 | 66 | 1017.1 |
| 20260903193014 | 88 | 189 | 1.0 | 5.0 | 0.00 | 0.00 | 0.00 | 68 | 1017.4 |
| 20260903191511 | 88 | 269 | 2.0 | 7.0 | 0.00 | 0.00 | 0.00 | 66 | 1017.5 |
| 20260903190007 | 88 | 200 | 2.0 | 7.0 | 0.00 | 0.02 | 0.00 | 67 | 1017.5 |
| 20260903184504 | 88 | 226 | 1.0 | 6.0 | 0.00 | 0.02 | 0.00 | 69 | 1017.8 |
| 20260903183002 | 87 | 295 | 2.0 | 6.0 | 0.00 | 0.02 | 0.00 | 68 | 1017.6 |
| 20260903181557 | 87 | 210 | 3.0 | 8.0 | 0.00 | 0.02 | 0.00 | 70 | 1017.7 |
| 20260903180050 | 85 | 210 | 1.0 | 6.0 | 0.00 | 0.02 | 0.00 | 74 | 1018.2 |
| 20260903174544 | 83 | 208 | 3.0 | 9.0 | 0.00 | 0.12 | 0.00 | 79 | 1018.3 |
| 20260903173038 | 82 | 191 | 1.0 | 6.0 | 0.00 | 0.12 | 0.00 | 82 | 1018.6 |
| 20260903171534 | 81 | 213 | 1.0 | 4.0 | 0.00 | 0.12 | 0.00 | 84 | 1018.8 |
| 20260903170031 | 81 | 225 | 1.0 | 4.0 | 0.00 | 0.12 | 0.00 | 85 | 1019.1 |
| 20260903164526 | 80 | 209 | 1.0 | 6.0 | 0.00 | 0.12 | 0.00 | 86 | 1019.2 |
| 20260903163024 | 79 | 242 | 0.0 | 5.0 | 0.00 | 0.12 | 0.00 | 87 | 1019.7 |
| 20260903161526 | 80 | 219 | 0.0 | 4.0 | 0.00 | 0.12 | 0.00 | 87 | 1020.3 |
| 20260903160020 | 79 | 262 | 1.0 | 4.0 | 0.00 | 0.12 | 0.00 | 87 | 1020.9 |
| 20260903154516 | 79 | 306 | 0.0 | 3.0 | 0.00 | 0.12 | 0.00 | 87 | 1020.5 |
| 20260903153013 | 80 | 188 | 1.0 | 4.0 | 0.00 | 0.12 | 0.00 | 87 | 1020.0 |
| 20260903151507 | 79 | 161 | 2.0 | 4.0 | 0.00 | 0.12 | 0.00 | 88 | 1019.8 |
| 20260903150011 | 79 | 243 | 2.0 | 6.0 | 0.00 | 0.12 | 0.00 | 87 | 1019.9 |
| 20260903144507 | 79 | 225 | 3.0 | 6.0 | 0.00 | 0.12 | 0.00 | 88 | 1019.5 |
| 20260903143106 | 78 | 200 | 2.0 | 4.0 | 0.00 | 0.12 | 0.00 | 89 | 1019.7 |
| 20260903141608 | 77 | 211 | 1.0 | 5.0 | 0.00 | 0.12 | 0.00 | 90 | 1019.4 |
| 20260903140056 | 77 | 248 | 0.0 | 4.0 | 0.00 | 0.12 | 0.00 | 91 | 1019.4 |
| 20260903134551 | 77 | 212 | 2.0 | 6.0 | 0.00 | 0.12 | 0.00 | 91 | 1019.3 |
| 20260903133049 | 77 | 208 | 0.0 | 3.0 | 0.00 | 0.12 | 0.00 | 92 | 1019.9 |
| 20260903131601 | 76 | 201 | 0.0 | 1.0 | 0.00 | 0.12 | 0.00 | 93 | 1020.1 |
| 20260903130044 | 76 | 213 | 3.0 | 5.0 | 0.00 | 0.12 | 0.00 | 93 | 1020.4 |
| 20260903124536 | 76 | 41 | 0.0 | 1.0 | 0.00 | 0.12 | 0.00 | 94 | 1020.9 |
| 20260903123041 | 75 | 41 | 0.0 | 1.0 | 0.00 | 0.12 | 0.00 | 94 | 1021.0 |
| 20260903121550 | 75 | 41 | 0.0 | 2.0 | 0.00 | 0.12 | 0.00 | 94 | 1021.2 |
| 20260903120029 | 0 | 0.0 | 0.0 | 0.00 | 0.12 | 0.00 | 1021.3 | ||
| 20260903114524 | 0 | 0.0 | 0.0 | 0.00 | 0.12 | 0.00 | 1021.6 | ||
| 20260903113019 | 0 | 0.0 | 0.0 | 0.00 | 0.12 | 0.00 | 1021.2 | ||
| 20260903111514 | 0 | 0.0 | 0.0 | 0.00 | 0.12 | 0.00 | 1020.8 | ||
| 20260903110007 | 0 | 0.0 | 0.0 | 0.00 | 0.12 | 0.00 | 1020.6 | ||
| 20260903104504 | 0 | 0.0 | 0.0 | 0.00 | 0.12 | 0.00 | 1020.2 | ||
| 20260903103058 | 0 | 0.0 | 0.0 | 0.00 | 0.12 | 0.00 | 1019.9 | ||
| 20260903101554 | 0 | 0.0 | 0.0 | 0.00 | 0.12 | 0.00 | 1019.3 | ||
| 20260903100049 | 0 | 211 | 0.0 | 0.0 | 0.00 | 0.12 | 0.00 | 96 | 1019.3 |
| 20260903094542 | 73 | 210 | 0.0 | 0.0 | 0.00 | 0.12 | 0.00 | 96 | 1019.7 |
| 20260903093037 | 73 | 210 | 0.0 | 0.0 | 0.00 | 0.12 | 0.00 | 96 | 1019.7 |
| 20260903091535 | 73 | 210 | 0.0 | 0.0 | 0.00 | 0.12 | 0.00 | 96 | 1019.7 |
| 20260903090027 | 73 | 210 | 0.0 | 0.0 | 0.00 | 0.12 | 0.00 | 96 | 1019.7 |
| 20260903084520 | 73 | 210 | 0.0 | 0.0 | 0.00 | 0.12 | 0.00 | 96 | 1019.7 |
| 20260903083015 | 73 | 210 | 0.0 | 0.0 | 0.00 | 0.12 | 0.00 | 96 | 1019.8 |
| 20260903081510 | 73 | 210 | 0.0 | 0.0 | 0.00 | 0.12 | 0.00 | 96 | 1019.5 |
| 20260903080008 | 72 | 210 | 0.0 | 0.0 | 0.00 | 0.12 | 0.00 | 96 | 1019.6 |
| 20260903074507 | 72 | 210 | 0.0 | 0.0 | 0.00 | 0.12 | 0.00 | 96 | 1019.7 |
| 20260903073011 | 72 | 210 | 0.0 | 1.0 | 0.00 | 0.12 | 0.00 | 96 | 1019.7 |
| 20260903071502 | 72 | 210 | 0.0 | 1.0 | 0.00 | 0.12 | 0.00 | 96 | 1019.5 |
| 20260903064558 | 72 | 210 | 0.0 | 0.0 | 0.00 | 0.12 | 0.00 | 95 | 1019.4 |
| 20260903063057 | 72 | 210 | 0.0 | 0.0 | 0.00 | 0.12 | 0.00 | 95 | 1019.6 |
| 20260903061600 | 72 | 210 | 0.0 | 1.0 | 0.00 | 0.12 | 0.00 | 95 | 1019.6 |
| 20260903054546 | 72 | 184 | 0.0 | 1.0 | 0.00 | 0.12 | 0.00 | 96 | 1019.9 |
| 20260903053046 | 72 | 217 | 0.0 | 1.0 | 0.00 | 0.12 | 0.00 | 96 | 1019.9 |
| 20260903051542 | 72 | 217 | 0.0 | 0.0 | 0.00 | 0.12 | 0.00 | 95 | 1019.9 |
| 20260903050044 | 73 | 217 | 0.0 | 0.0 | 0.00 | 0.12 | 0.00 | 95 | 1020.0 |
| 20260903044534 | 73 | 217 | 0.0 | 0.0 | 0.00 | 0.12 | 0.00 | 96 | 1020.0 |
| 20260903043030 | 72 | 211 | 0.0 | 0.0 | 0.00 | 0.12 | 0.00 | 95 | 1020.1 |
| 20260903041524 | 72 | 211 | 0.0 | 0.0 | 0.00 | 0.12 | 0.00 | 96 | 1020.3 |
| 20260903040018 | 72 | 211 | 0.0 | 0.0 | 0.00 | 0.12 | 0.12 | 95 | 1020.3 |
| 20260903034516 | 72 | 211 | 0.0 | 0.0 | 0.00 | 0.12 | 0.12 | 95 | 1020.3 |
| 20260903033016 | 73 | 211 | 0.0 | 0.0 | 0.00 | 0.12 | 0.12 | 96 | 1020.3 |
| 20260903031512 | 72 | 4 | 0.0 | 0.0 | 0.00 | 0.12 | 0.12 | 95 | 1020.4 |
| 20260903030014 | 72 | 4 | 0.0 | 0.0 | 0.00 | 0.12 | 0.12 | 95 | 1020.4 |
| 20260903024508 | 72 | 4 | 0.0 | 0.0 | 0.00 | 0.12 | 0.12 | 95 | 1020.7 |
| 20260903023006 | 71 | 346 | 0.0 | 0.0 | 0.00 | 0.12 | 0.12 | 95 | 1020.8 |
| 20260903021504 | 71 | 11 | 0.0 | 0.0 | 0.00 | 0.12 | 0.12 | 95 | 1020.6 |
| 20260903020003 | 72 | 11 | 0.0 | 0.0 | 0.00 | 0.12 | 0.12 | 94 | 1020.5 |
| 20260903014630 | 72 | 11 | 0.0 | 0.0 | 0.00 | 0.12 | 0.12 | 94 | 1020.6 |
| 20260903013101 | 72 | 207 | 0.0 | 0.0 | 0.00 | 0.12 | 0.12 | 94 | 1020.2 |
| 20260903011607 | 72 | 3 | 0.0 | 0.0 | 0.00 | 0.12 | 0.12 | 94 | 1020.3 |
| 20260903010050 | 73 | 2 | 0.0 | 0.0 | 0.00 | 0.12 | 0.12 | 94 | 1020.6 |
| 20260903004549 | 72 | 2 | 0.0 | 0.0 | 0.00 | 0.12 | 0.12 | 93 | 1020.5 |
| 20260903003051 | 73 | 2 | 0.0 | 0.0 | 0.00 | 0.12 | 0.12 | 93 | 1019.9 |
| 20260903001543 | 73 | 2 | 0.0 | 0.0 | 0.00 | 0.12 | 0.12 | 93 | 1020.2 |
| 20260903000051 | 73 | 3 | 0.0 | 0.0 | 0.00 | 0.12 | 0.12 | 92 | 1020.2 |